Location: *
(51.2167°N, 10.0667°E)
Time: 12:51:05
(UTC+00:00)

Ariane Rocket - Pass Details

Date: 12 December 2019
Orbit: 760 x 770 km, 98.7° (Epoch: 17 January)

Event Time Altitude Azimuth Distance (km) Brightness Sun altitude
Exits shadow 17:15:01 26° 40° (NE) 1,474 4.0 -18.0°
Drops below altitude 10° 17:18:17 10° 3° (N) 2,307 5.3 -18.5°
Sets 17:20:52 0° 352° (N) 3,237 6.2 -18.9°
